Flag for U.S.A. Weather past 2 weeks in Norfolk, Virginia, U.S.A.

Now
85 °F

Scattered clouds.


Feels Like: 94 °F
Forecast: 72 / 88 °F
Wind: 7 mph from Northeast

Location: Norfolk Naval Air Station

Current Time: Sep 4, 2015 at 10:49:00 AM

Latest Report: Sep 4, 2015 at 9:59 AM


Visibility: 5 mi

Pressure: 29.98 "Hg

Humidity: 75%

Dew point: 76 °F

Location of NorfolkLocation

Historic Weather in Norfolk — Graph

°F

Norfolk temperature yesterday

Maximum temperature yesterday: 89 °F (at 12:59 PM)
Minimum temperature yesterday: 73 °F (at 5:59 AM)
Average temperature yesterday: 80 °F

Past Weeks' High & Low Weather Summary

 TemperatureHumidityPressure
High93 °F (Sep 2, 1:59 PM)97% (Aug 21, 1:59 AM)30.25 "Hg (Aug 21, 1:59 AM)
Low48 °F (Aug 22, 3:59 AM)37% (Aug 30, 1:59 PM)29.86 "Hg (Sep 3, 6:59 PM)
Average77 °F69%30.03 "Hg
* Reported Aug 20 9:59 AM — Sep 4 9:59 AM, Norfolk, Weather by CustomWeather, © 2015

Note: Actual official high and low records may vary slightly from our data, if they occured in-between our weather recording intervals... More about our weather records

Advertising

Norfolk weather history for previous 24 hours

 ConditionsComfort  
Time TempWeatherWind HumidityBarometerVisibility
9:59 AM
Fri, Sep 4
85 °FScattered clouds.7 mph75%29.98 "Hg5 mi
8:59 AM83 °FScattered clouds.8 mph77%29.97 "Hg5 mi
7:59 AM80 °FFog.6 mph85%29.95 "Hg5 mi
6:59 AM74 °FFog.No wind91%29.93 "Hg4 mi
5:59 AM73 °FFog.No wind94%29.91 "Hg3 mi
4:59 AM74 °FFog.3 mph91%29.91 "Hg4 mi
3:59 AM74 °FFog.No wind94%29.91 "Hg5 mi
2:59 AM75 °FFog.No wind90%29.89 "Hg5 mi
1:59 AM75 °FFog.No wind90%29.90 "Hg5 mi
12:59 AM76 °FFog.No wind88%29.90 "Hg6 mi
11:59 PM
Thu, Sep 3
76 °FPassing clouds.3 mph88%29.90 "Hg7 mi
10:59 PM76 °FPassing clouds.No wind82%29.90 "Hg7 mi
9:59 PM77 °FPassing clouds.3 mph79%29.90 "Hg7 mi
8:59 PM79 °FPassing clouds.5 mph72%29.90 "Hg7 mi
7:59 PM79 °FScattered clouds.3 mph69%29.87 "Hg7 mi
6:59 PM84 °FScattered clouds.3 mph57%29.86 "Hg7 mi
5:59 PM88 °FScattered clouds.5 mph46%29.87 "Hg7 mi
4:59 PM89 °FScattered clouds.5 mph45%29.87 "Hg7 mi
3:59 PM89 °FPassing clouds.6 mph48%29.87 "Hg7 mi
2:59 PM89 °FPassing clouds.5 mph52%29.90 "Hg7 mi
1:59 PM88 °FPassing clouds.6 mph55%29.91 "Hg7 mi
12:59 PM89 °FPassing clouds.6 mph53%29.92 "Hg7 mi
11:59 AM86 °FPassing clouds.3 mph59%29.93 "Hg7 mi
10:59 AM85 °FSunny.3 mph57%29.93 "Hg8 mi
Weather by CustomWeather, © 2015

See weather overviewHow to use our weather pages